OPS 4682 DEB, 26733

Orbit data source: Space-Track

OPS 4682 DEB, 26733 is space debris in LEO originally from a launch on Sat, 03 Apr 1965 UTC launched from the Air Force Western Test Range (AFWTR). Debris objects in space refer to the collection of defunct objects orbiting the Earth. Examples of debris include non-operational satellites, rocket bodies, and fragments generated from explosions, collisions, or faulty payload assembly.

Loading next visibility...
Identifier
26733, 1965-027BG
Orbit
LEO
Country
Flag of USUS
Related business
Manufacturer
Unknown
Mission
Spacecraft
Bus & Motor
Unknown
Mass
Unknown
Launch date (UTC)
1965-04-03 (61 years ago)
Launch vehicle
Unknown
Launch site
Air Force Western Test Range (AFWTR)
Object type
Payload
Rocket body
Debris
Shape & HBR
Unknown shape, 0.1 m
Radar Cross Section
Medium (>0.1 m² and <1 m²)

Expand to show TLE details & history
Last TLE update: 1 day ago

TLE from 1 day ago
0 OPS 4682 DEB
1 26733U 65027BG  26149.60364024  .00000300  00000-0  10518-2 0  9998
2 26733  90.2400   5.7712 0031893 274.5405 110.6818 12.94423068194605
Epoch: 2026-05-29T14:29Z
TLE epoch observation values (Epoch: 2026-05-29T14:29:14.516Z)
Latitude
25.59103°
Longitude
-98.7853°
Altitude
1,295.811 km
Speed
7.206 km/s
True Right ascension
00h 22m 37s
True Declination
25° 28' 00"
Sunlit
Object was in daylight at epoch
Visualization orbit readout
Latitude
Unknown
Longitude
Unknown
Altitude
Unknown
Speed
Unknown
Apparent Right ascension
Unknown
Apparent Declination
Unknown
Sunlit
N/A
Visualization observer readout
Local Sidereal Time
08:22:39
Azimuth
Unknown
Elevation
Unknown
Doppler factor
Unknown
Orbital elements
Apogee altitude
1,305.579 km
Perigee altitude
1,256.723 km
Semi-major axis
7,659.288 km
Eccentricity
0.00319
Inclination
90.24°
RAAN
5.7712°
Arg. of periapsis
274.5405°
True anomaly
111.02323°
Mean anomaly
110.6818°
Eccentric anomaly
110.85256°
Mean motion
3.23788 °/min
Orbital period
111.18 mins
BSTAR
0.0010518
Loading maneuver chart data...
Computing Atmospheric mass density...
Loading historical data...
Loading historical data...
Loading historical data...
Loading historical data...
Loading historical data...
Loading historical data...
Loading historical data...

Documentation

Showing up to 5 results
|